CSN8886 ZSSS-ZBAD

Flight info

Callsign CSN8886
Flight time 1h 34m
Altitude 32100
Route POMOK G330 PIMOL A593 DALIM W157 AVBOX
Aircraft A339/H-SADE1E2E3GHIJ3J5M1P2RWXY/LB2D1

Departure

Time 2026-04-28 03:21
Airport Shanghai Hongqiao International Airport (ZSSS)

Arrival

Time 2026-04-28 04:56
Airport Beijing Daxing International Airport (ZBAD)
Time Latitude Longitude Altitude Speed Heading
2026-04-28 03:01 31.19801 121.32602 23 ft 0 kts 338°
2026-04-28 03:07 31.19791 121.32606 23 ft 2 kts 338°
2026-04-28 03:07 31.19776 121.32614 23 ft 2 kts 338°
2026-04-28 03:08 31.19762 121.32620 23 ft 2 kts 338°
2026-04-28 03:08 31.19748 121.32627 23 ft 2 kts 338°
2026-04-28 03:08 31.19734 121.32634 23 ft 2 kts 338°
2026-04-28 03:08 31.19719 121.32641 23 ft 2 kts 340°
2026-04-28 03:09 31.19704 121.32646 23 ft 2 kts 345°
2026-04-28 03:09 31.19689 121.32651 23 ft 2 kts 349°
2026-04-28 03:09 31.19673 121.32654 23 ft 2 kts 353°
2026-04-28 03:09 31.19658 121.32655 23 ft 2 kts 357°
2026-04-28 03:10 31.19647 121.32656 23 ft 0 kts
2026-04-28 03:10 31.19645 121.32656 23 ft 0 kts
2026-04-28 03:13 31.19646 121.32656 23 ft 0 kts
2026-04-28 03:13 31.19652 121.32656 23 ft 0 kts
2026-04-28 03:13 31.19654 121.32656 23 ft 0 kts
2026-04-28 03:14 31.19666 121.32656 23 ft 2 kts
2026-04-28 03:14 31.19690 121.32657 23 ft 4 kts
2026-04-28 03:14 31.19722 121.32672 23 ft 5 kts 41°
2026-04-28 03:14 31.19737 121.32716 23 ft 6 kts 83°
2026-04-28 03:15 31.19742 121.32776 23 ft 8 kts 84°
2026-04-28 03:15 31.19746 121.32810 23 ft 8 kts 83°
2026-04-28 03:15 31.19748 121.32879 23 ft 9 kts 90°
2026-04-28 03:15 31.19743 121.32961 23 ft 10 kts 97°
2026-04-28 03:16 31.19720 121.33038 23 ft 8 kts 138°
2026-04-28 03:16 31.19658 121.33063 23 ft 9 kts 171°
2026-04-28 03:16 31.19587 121.33070 23 ft 10 kts 176°
2026-04-28 03:16 31.19508 121.33067 23 ft 11 kts 179°
2026-04-28 03:17 31.19422 121.33074 23 ft 12 kts 175°
2026-04-28 03:17 31.19234 121.33087 23 ft 14 kts 176°
2026-04-28 03:17 31.19134 121.33092 23 ft 14 kts 178°
2026-04-28 03:18 31.19028 121.33096 23 ft 15 kts 176°
2026-04-28 03:18 31.18918 121.33105 23 ft 16 kts 176°
2026-04-28 03:18 31.18796 121.33112 23 ft 18 kts 178°
2026-04-28 03:18 31.18668 121.33118 23 ft 18 kts 182°
2026-04-28 03:19 31.18540 121.33125 23 ft 18 kts 176°
2026-04-28 03:19 31.18473 121.33141 23 ft 5 kts 129°
2026-04-28 03:19 31.18470 121.33192 23 ft 7 kts 81°
2026-04-28 03:19 31.18479 121.33256 23 ft 8 kts 80°
2026-04-28 03:20 31.18498 121.33315 23 ft 6 kts 37°
2026-04-28 03:20 31.18543 121.33318 23 ft 7 kts 354°
2026-04-28 03:20 31.18613 121.33312 23 ft 17 kts 357°
2026-04-28 03:20 31.18955 121.33296 23 ft 81 kts 359°
2026-04-28 03:21 31.19725 121.33264 23 ft 136 kts 357°
2026-04-28 03:21 31.20822 121.33196 102 ft 173 kts 358°
2026-04-28 03:21 31.22040 121.33087 612 ft 179 kts 357°
2026-04-28 03:21 31.23226 121.32716 1379 ft 179 kts 332°
2026-04-28 03:22 31.24133 121.31706 2088 ft 177 kts 327°
2026-04-28 03:22 31.25144 121.30932 2682 ft 174 kts 334°
2026-04-28 03:22 31.26135 121.30121 3251 ft 177 kts 330°
2026-04-28 03:22 31.27120 121.29265 3779 ft 177 kts 329°
2026-04-28 03:23 31.28118 121.28392 4184 ft 182 kts 328°
2026-04-28 03:23 31.29162 121.27482 4445 ft 195 kts 328°
2026-04-28 03:23 31.30289 121.26499 4728 ft 207 kts 327°
2026-04-28 03:23 31.31459 121.25475 4923 ft 216 kts 327°
2026-04-28 03:24 31.32711 121.24385 5137 ft 234 kts 327°
2026-04-28 03:24 31.34071 121.23199 5456 ft 250 kts 327°
2026-04-28 03:24 31.35507 121.21948 5831 ft 262 kts 326°
2026-04-28 03:24 31.36964 121.20673 6390 ft 265 kts 326°
2026-04-28 03:25 31.38453 121.19371 7010 ft 267 kts 325°
2026-04-28 03:25 31.39894 121.18029 7552 ft 271 kts 319°
2026-04-28 03:25 31.41286 121.16459 8026 ft 282 kts 312°
2026-04-28 03:25 31.42610 121.14775 8714 ft 283 kts 310°
2026-04-28 03:26 31.43969 121.13037 9406 ft 284 kts 312°
2026-04-28 03:26 31.45569 121.11497 10186 ft 287 kts 323°
2026-04-28 03:26 31.47330 121.10381 10692 ft 298 kts 330°
2026-04-28 03:26 31.49282 121.09328 10982 ft 314 kts 332°
2026-04-28 03:27 31.51328 121.08255 11262 ft 330 kts 331°
2026-04-28 03:27 31.53462 121.07138 11536 ft 346 kts 332°
2026-04-28 03:27 31.55723 121.05945 11809 ft 361 kts 332°
2026-04-28 03:27 31.58043 121.04714 12083 ft 376 kts 332°
2026-04-28 03:28 31.60484 121.03419 12428 ft 388 kts 331°
2026-04-28 03:28 31.62947 121.02116 12986 ft 393 kts 332°
2026-04-28 03:28 31.65463 121.00781 13551 ft 398 kts 331°
2026-04-28 03:28 31.68021 120.99423 14116 ft 403 kts 331°
2026-04-28 03:29 31.70555 120.98071 14722 ft 406 kts 330°
2026-04-28 03:29 31.73141 120.96691 15366 ft 408 kts 330°
2026-04-28 03:29 31.75742 120.95305 15997 ft 410 kts 330°
2026-04-28 03:29 31.78311 120.93934 16634 ft 410 kts 330°
2026-04-28 03:30 31.80905 120.92549 17234 ft 411 kts 329°
2026-04-28 03:30 31.83533 120.91143 17787 ft 413 kts 330°
2026-04-28 03:30 31.86168 120.89732 18342 ft 415 kts 329°
2026-04-28 03:30 31.88802 120.88320 18876 ft 417 kts 329°
2026-04-28 03:31 31.91427 120.86912 19395 ft 420 kts 329°
2026-04-28 03:31 31.94102 120.85478 19908 ft 422 kts 329°
2026-04-28 03:31 31.96786 120.84036 20438 ft 423 kts 329°
2026-04-28 03:31 31.99466 120.82597 20923 ft 426 kts 329°
2026-04-28 03:32 32.02182 120.81135 21394 ft 428 kts 329°
2026-04-28 03:32 32.04884 120.79681 21858 ft 430 kts 329°
2026-04-28 03:32 32.07600 120.78217 22290 ft 432 kts 329°
2026-04-28 03:32 32.10347 120.76736 22723 ft 435 kts 329°
2026-04-28 03:33 32.13003 120.75094 23122 ft 428 kts 318°
2026-04-28 03:33 32.15120 120.72669 23540 ft 417 kts 302°
2026-04-28 03:33 32.16537 120.69717 23981 ft 410 kts 288°
2026-04-28 03:33 32.17224 120.66513 24421 ft 406 kts 275°
2026-04-28 03:34 32.17487 120.63224 24813 ft 408 kts 274°
2026-04-28 03:34 32.17767 120.59858 25175 ft 412 kts 274°
2026-04-28 03:34 32.18053 120.56500 25571 ft 414 kts 274°
2026-04-28 03:34 32.18337 120.53141 25970 ft 415 kts 274°
2026-04-28 03:35 32.18622 120.49770 26354 ft 417 kts 274°
2026-04-28 03:35 32.18905 120.46339 26689 ft 420 kts 274°
2026-04-28 03:35 32.19191 120.42922 27028 ft 422 kts 274°
2026-04-28 03:35 32.19476 120.39458 27405 ft 423 kts 274°
2026-04-28 03:36 32.19759 120.36006 27737 ft 425 kts 274°
2026-04-28 03:36 32.20043 120.32533 28064 ft 428 kts 274°
2026-04-28 03:36 32.20329 120.29015 28411 ft 429 kts 274°
2026-04-28 03:36 32.20612 120.25538 28733 ft 431 kts 273°
2026-04-28 03:37 32.20903 120.22013 29060 ft 433 kts 273°
2026-04-28 03:37 32.21186 120.18511 29480 ft 432 kts 274°
2026-04-28 03:37 32.21474 120.14983 29963 ft 430 kts 274°
2026-04-28 03:37 32.21758 120.11481 30399 ft 428 kts 274°
2026-04-28 03:38 32.22039 120.07987 30818 ft 427 kts 274°
2026-04-28 03:38 32.22320 120.04535 31251 ft 425 kts 274°
2026-04-28 03:38 32.22597 120.01107 31631 ft 424 kts 274°
2026-04-28 03:38 32.22876 119.97623 31982 ft 424 kts 274°
2026-04-28 03:39 32.23152 119.94166 32360 ft 423 kts 274°
2026-04-28 03:39 32.23424 119.90738 32726 ft 422 kts 274°
2026-04-28 03:39 32.23788 119.87298 33112 ft 422 kts 278°
2026-04-28 03:39 32.24476 119.83969 33504 ft 422 kts 284°
2026-04-28 03:40 32.25493 119.80707 33912 ft 424 kts 290°
2026-04-28 03:40 32.26812 119.77617 34332 ft 425 kts 295°
2026-04-28 03:40 32.28435 119.74691 34753 ft 427 kts 301°
2026-04-28 03:40 32.30352 119.71971 35075 ft 432 kts 307°
2026-04-28 03:41 32.32521 119.69536 35329 ft 438 kts 313°
2026-04-28 03:41 32.34955 119.67313 35556 ft 442 kts 316°
2026-04-28 03:41 32.37431 119.65176 35789 ft 443 kts 317°
2026-04-28 03:41 32.39931 119.63046 36020 ft 444 kts 317°
2026-04-28 03:42 32.42445 119.60912 36173 ft 445 kts 317°
2026-04-28 03:42 32.44942 119.58785 36179 ft 444 kts 317°
2026-04-28 03:42 32.49971 119.54477 36184 ft 444 kts 317°
2026-04-28 03:43 32.54977 119.50145 36186 ft 444 kts 316°
2026-04-28 03:43 32.59935 119.45854 36185 ft 445 kts 316°
2026-04-28 03:44 32.64937 119.41522 36191 ft 444 kts 316°
2026-04-28 03:44 32.69902 119.37215 36187 ft 443 kts 316°
2026-04-28 03:45 32.74865 119.32902 36192 ft 443 kts 316°
2026-04-28 03:45 32.79833 119.28581 36193 ft 441 kts 316°
2026-04-28 03:46 32.84781 119.24272 36190 ft 441 kts 316°
2026-04-28 03:46 32.89707 119.19973 36189 ft 442 kts 316°
2026-04-28 03:47 32.94681 119.15632 36189 ft 442 kts 316°
2026-04-28 03:47 32.99653 119.11347 36193 ft 442 kts 316°
2026-04-28 03:48 33.04616 119.07078 36186 ft 441 kts 316°
2026-04-28 03:48 33.09599 119.02782 36189 ft 440 kts 316°
2026-04-28 03:49 33.14538 118.98515 36190 ft 440 kts 316°
2026-04-28 03:49 33.19506 118.94216 36195 ft 441 kts 316°
2026-04-28 03:50 33.24443 118.89913 36199 ft 439 kts 316°
2026-04-28 03:50 33.29355 118.85616 36196 ft 438 kts 316°
2026-04-28 03:51 33.34293 118.81332 36201 ft 439 kts 316°
2026-04-28 03:51 33.39238 118.77052 36203 ft 439 kts 316°
2026-04-28 03:52 33.44173 118.72771 36203 ft 438 kts 316°
2026-04-28 03:52 33.49124 118.68475 36208 ft 439 kts 316°
2026-04-28 03:53 33.54056 118.64200 36211 ft 439 kts 316°
2026-04-28 03:53 33.58998 118.59908 36214 ft 438 kts 316°
2026-04-28 03:54 33.63921 118.55636 36220 ft 438 kts 316°
2026-04-28 03:54 33.68848 118.51343 36218 ft 437 kts 316°
2026-04-28 03:55 33.73759 118.47060 36219 ft 437 kts 316°
2026-04-28 03:55 33.78680 118.42766 36221 ft 437 kts 316°
2026-04-28 03:56 33.83597 118.38467 36224 ft 439 kts 316°
2026-04-28 03:56 33.88515 118.34160 36226 ft 437 kts 315°
2026-04-28 03:57 33.93416 118.29863 36222 ft 436 kts 315°
2026-04-28 03:57 33.98300 118.25580 36225 ft 437 kts 316°
2026-04-28 03:58 34.03233 118.21287 36229 ft 437 kts 315°
2026-04-28 03:58 34.08142 118.17014 36231 ft 436 kts 315°
2026-04-28 03:59 34.13063 118.12729 36231 ft 436 kts 315°
2026-04-28 03:59 34.17958 118.08459 36230 ft 434 kts 315°
2026-04-28 04:00 34.22978 118.04369 36231 ft 440 kts 319°
2026-04-28 04:00 34.28366 118.00793 36234 ft 447 kts 324°
2026-04-28 04:01 34.34140 117.97779 36229 ft 453 kts 329°
2026-04-28 04:01 34.40132 117.95409 36227 ft 459 kts 333°
2026-04-28 04:02 34.46270 117.93219 36232 ft 457 kts 333°
2026-04-28 04:02 34.52362 117.91051 36230 ft 459 kts 333°
2026-04-28 04:03 34.58516 117.88851 36231 ft 460 kts 333°
2026-04-28 04:03 34.64628 117.86663 36232 ft 457 kts 333°
2026-04-28 04:04 34.70690 117.84488 36227 ft 456 kts 333°
2026-04-28 04:04 34.76764 117.82306 36233 ft 457 kts 333°
2026-04-28 04:05 34.83296 117.79948 36231 ft 457 kts 332°
2026-04-28 04:05 34.89856 117.77544 36232 ft 456 kts 332°
2026-04-28 04:06 34.96189 117.75227 36234 ft 454 kts 332°
2026-04-28 04:06 35.02222 117.73019 36233 ft 453 kts 332°
2026-04-28 04:07 35.08273 117.70799 36233 ft 456 kts 332°
2026-04-28 04:07 35.14377 117.68557 36233 ft 455 kts 332°
2026-04-28 04:08 35.20417 117.66341 36235 ft 454 kts 332°
2026-04-28 04:08 35.26446 117.64122 36234 ft 454 kts 332°
2026-04-28 04:09 35.32515 117.61885 36236 ft 456 kts 332°
2026-04-28 04:09 35.38578 117.59650 36237 ft 456 kts 332°
2026-04-28 04:10 35.44655 117.57405 36240 ft 458 kts 331°
2026-04-28 04:10 35.50756 117.55148 36239 ft 455 kts 332°
2026-04-28 04:11 35.56823 117.52896 36234 ft 456 kts 332°
2026-04-28 04:11 35.62908 117.50640 36238 ft 456 kts 332°
2026-04-28 04:12 35.68994 117.48375 36236 ft 457 kts 332°
2026-04-28 04:12 35.75085 117.46111 36236 ft 458 kts 331°
2026-04-28 04:13 35.81157 117.43845 36238 ft 457 kts 331°
2026-04-28 04:13 35.87246 117.41571 36240 ft 456 kts 331°
2026-04-28 04:14 35.93308 117.39304 36239 ft 457 kts 331°
2026-04-28 04:14 35.99401 117.37018 36239 ft 457 kts 331°
2026-04-28 04:15 36.05477 117.34765 36243 ft 457 kts 331°
2026-04-28 04:16 36.14633 117.31385 36244 ft 456 kts 330°
2026-04-28 04:16 36.20699 117.29139 36239 ft 456 kts 330°
2026-04-28 04:17 36.26781 117.26882 36243 ft 455 kts 330°
2026-04-28 04:17 36.32826 117.24635 36246 ft 456 kts 330°
2026-04-28 04:18 36.38871 117.22387 36251 ft 453 kts 329°
2026-04-28 04:18 36.44750 117.19760 36250 ft 446 kts 325°
2026-04-28 04:19 36.50451 117.16814 36253 ft 444 kts 324°
2026-04-28 04:19 36.56165 117.13834 36256 ft 442 kts 324°
2026-04-28 04:20 36.61805 117.10892 36256 ft 443 kts 324°
2026-04-28 04:20 36.67485 117.07925 36256 ft 440 kts 324°
2026-04-28 04:21 36.73298 117.04887 35956 ft 440 kts 324°
2026-04-28 04:21 36.76279 117.03330 35646 ft 438 kts 323°
2026-04-28 04:21 36.79259 117.01774 35336 ft 436 kts 324°
2026-04-28 04:21 36.82066 117.00303 35045 ft 436 kts 323°
2026-04-28 04:22 36.84866 116.98830 34753 ft 434 kts 323°
2026-04-28 04:22 36.87638 116.97372 34467 ft 435 kts 324°
2026-04-28 04:22 36.90416 116.95909 34179 ft 434 kts 324°
2026-04-28 04:22 36.93218 116.94433 33891 ft 437 kts 324°
2026-04-28 04:23 36.95987 116.92976 33606 ft 438 kts 324°
2026-04-28 04:23 36.98816 116.91486 33336 ft 440 kts 324°
2026-04-28 04:23 37.01642 116.89997 33073 ft 440 kts 324°
2026-04-28 04:23 37.04437 116.88524 32817 ft 440 kts 324°
2026-04-28 04:24 37.07274 116.87028 32555 ft 441 kts 324°
2026-04-28 04:24 37.10087 116.85540 32297 ft 442 kts 324°
2026-04-28 04:24 37.12942 116.84029 32037 ft 446 kts 324°
2026-04-28 04:24 37.15794 116.82517 31775 ft 447 kts 324°
2026-04-28 04:25 37.18680 116.80990 31513 ft 448 kts 324°
2026-04-28 04:25 37.21571 116.79572 31260 ft 456 kts 327°
2026-04-28 04:25 37.24616 116.78291 30998 ft 460 kts 329°
2026-04-28 04:25 37.27650 116.77121 30742 ft 464 kts 330°
2026-04-28 04:26 37.30767 116.75944 30481 ft 466 kts 330°
2026-04-28 04:26 37.33863 116.74779 30223 ft 466 kts 330°
2026-04-28 04:26 37.36985 116.73606 29967 ft 466 kts 330°
2026-04-28 04:26 37.40081 116.72439 29709 ft 469 kts 330°
2026-04-28 04:27 37.43204 116.71257 29451 ft 472 kts 330°
2026-04-28 04:27 37.46355 116.70063 29213 ft 472 kts 330°
2026-04-28 04:27 37.49506 116.68870 28980 ft 470 kts 330°
2026-04-28 04:27 37.52592 116.67705 28702 ft 467 kts 330°
2026-04-28 04:28 37.55718 116.66521 28345 ft 461 kts 331°
2026-04-28 04:28 37.58736 116.65376 28121 ft 458 kts 330°
2026-04-28 04:28 37.61798 116.64211 27852 ft 454 kts 330°
2026-04-28 04:28 37.64834 116.63054 27497 ft 452 kts 331°
2026-04-28 04:29 37.67814 116.61916 27142 ft 448 kts 331°
2026-04-28 04:29 37.70772 116.60789 26766 ft 445 kts 332°
2026-04-28 04:29 37.73718 116.59660 26395 ft 441 kts 332°
2026-04-28 04:29 37.76638 116.58546 26047 ft 437 kts 332°
2026-04-28 04:30 37.79540 116.57437 25702 ft 433 kts 332°
2026-04-28 04:30 37.82397 116.56344 25367 ft 427 kts 332°
2026-04-28 04:30 37.85188 116.55276 25036 ft 420 kts 332°
2026-04-28 04:30 37.87976 116.54211 24705 ft 412 kts 332°
2026-04-28 04:31 37.90700 116.53165 24380 ft 405 kts 333°
2026-04-28 04:31 37.93347 116.52148 24060 ft 397 kts 332°
2026-04-28 04:31 37.95904 116.50929 23715 ft 383 kts 326°
2026-04-28 04:31 37.98225 116.49480 23389 ft 371 kts 322°
2026-04-28 04:32 38.00407 116.47779 23044 ft 360 kts 317°
2026-04-28 04:32 38.02423 116.45985 22703 ft 354 kts 316°
2026-04-28 04:32 38.04411 116.44172 22366 ft 348 kts 317°
2026-04-28 04:32 38.06338 116.42409 22046 ft 344 kts 317°
2026-04-28 04:33 38.08279 116.40630 21713 ft 342 kts 317°
2026-04-28 04:33 38.10221 116.38846 21375 ft 342 kts 318°
2026-04-28 04:33 38.12151 116.37073 21033 ft 341 kts 319°
2026-04-28 04:33 38.14076 116.35304 20677 ft 340 kts 318°
2026-04-28 04:34 38.16014 116.33524 20327 ft 341 kts 319°
2026-04-28 04:34 38.18098 116.31606 19908 ft 342 kts 318°
2026-04-28 04:34 38.20220 116.29652 19477 ft 342 kts 319°
2026-04-28 04:34 38.22320 116.27720 19100 ft 339 kts 319°
2026-04-28 04:35 38.24528 116.26092 18688 ft 349 kts 333°
2026-04-28 04:35 38.26939 116.25404 18300 ft 360 kts 349°
2026-04-28 04:35 38.29450 116.25612 17931 ft 371 kts
2026-04-28 04:35 38.31967 116.26448 17597 ft 372 kts
2026-04-28 04:36 38.34467 116.27309 17216 ft 371 kts
2026-04-28 04:36 38.36935 116.28164 16841 ft 369 kts
2026-04-28 04:36 38.39413 116.29021 16491 ft 367 kts
2026-04-28 04:36 38.41840 116.29860 16124 ft 364 kts
2026-04-28 04:37 38.44302 116.30710 15764 ft 362 kts
2026-04-28 04:37 38.46794 116.31568 15402 ft 360 kts
2026-04-28 04:37 38.49216 116.32403 15039 ft 358 kts
2026-04-28 04:37 38.51596 116.33228 14676 ft 356 kts
2026-04-28 04:38 38.53968 116.34047 14329 ft 354 kts 10°
2026-04-28 04:38 38.56477 116.34915 13959 ft 352 kts 10°
2026-04-28 04:38 38.58836 116.35736 13601 ft 350 kts 10°
2026-04-28 04:38 38.61183 116.36548 13232 ft 348 kts 11°
2026-04-28 04:39 38.63495 116.37484 12872 ft 349 kts 17°
2026-04-28 04:39 38.65685 116.38776 12524 ft 351 kts 24°
2026-04-28 04:39 38.67780 116.40440 12169 ft 351 kts 30°
2026-04-28 04:39 38.69809 116.42254 11978 ft 366 kts 31°
2026-04-28 04:40 38.71894 116.44151 11971 ft 371 kts 31°
2026-04-28 04:40 38.74000 116.46075 11973 ft 371 kts 31°
2026-04-28 04:40 38.76104 116.47990 11979 ft 372 kts 31°
2026-04-28 04:40 38.78189 116.49894 11756 ft 365 kts 31°
2026-04-28 04:41 38.80236 116.51760 11287 ft 355 kts 31°
2026-04-28 04:41 38.82239 116.53580 10839 ft 345 kts 31°
2026-04-28 04:41 38.84147 116.55317 10446 ft 335 kts 31°
2026-04-28 04:41 38.86017 116.57018 10285 ft 318 kts 31°
2026-04-28 04:42 38.87752 116.58603 10239 ft 300 kts 31°
2026-04-28 04:42 38.89392 116.60101 10195 ft 283 kts 31°
2026-04-28 04:42 38.90974 116.61543 10017 ft 274 kts 31°
2026-04-28 04:42 38.92517 116.62948 9756 ft 268 kts 31°
2026-04-28 04:43 38.94010 116.64307 9524 ft 264 kts 31°
2026-04-28 04:43 38.95509 116.65668 9295 ft 261 kts 32°
2026-04-28 04:43 38.96993 116.67020 9043 ft 261 kts 32°
2026-04-28 04:43 38.98456 116.68357 8725 ft 261 kts 32°
2026-04-28 04:44 38.99941 116.69711 8378 ft 259 kts 32°
2026-04-28 04:44 39.01409 116.71052 7914 ft 258 kts 32°
2026-04-28 04:44 39.02964 116.72384 7424 ft 253 kts 22°
2026-04-28 04:44 39.04722 116.72949 7005 ft 244 kts 360°
2026-04-28 04:45 39.06513 116.72775 6532 ft 242 kts 353°
2026-04-28 04:45 39.08124 116.72211 6024 ft 243 kts 326°
2026-04-28 04:45 39.09257 116.70538 5606 ft 242 kts 297°
2026-04-28 04:45 39.09866 116.68412 5141 ft 244 kts 291°
2026-04-28 04:46 39.10451 116.66200 4619 ft 245 kts 292°
2026-04-28 04:46 39.11043 116.64040 4313 ft 237 kts 292°
2026-04-28 04:46 39.11614 116.62011 4109 ft 227 kts 293°
2026-04-28 04:46 39.12014 116.59949 3883 ft 223 kts 277°
2026-04-28 04:47 39.11930 116.57725 3869 ft 228 kts 267°
2026-04-28 04:47 39.11720 116.55565 3857 ft 229 kts 266°
2026-04-28 04:47 39.11495 116.53342 3850 ft 230 kts 266°
2026-04-28 04:47 39.11415 116.51284 3847 ft 225 kts 286°
2026-04-28 04:48 39.12094 116.49565 3837 ft 216 kts 319°
2026-04-28 04:48 39.13377 116.48586 3858 ft 215 kts 343°
2026-04-28 04:48 39.14834 116.48161 3858 ft 216 kts 352°
2026-04-28 04:48 39.16322 116.47928 3855 ft 216 kts 354°
2026-04-28 04:49 39.17832 116.47726 3845 ft 216 kts 354°
2026-04-28 04:49 39.19324 116.47520 3844 ft 218 kts 354°
2026-04-28 04:49 39.20821 116.47302 3847 ft 217 kts 354°
2026-04-28 04:49 39.22334 116.47071 3849 ft 217 kts 353°
2026-04-28 04:50 39.23842 116.46835 3848 ft 217 kts 353°
2026-04-28 04:50 39.25326 116.46599 3842 ft 216 kts 353°
2026-04-28 04:50 39.26830 116.46358 3838 ft 216 kts 353°
2026-04-28 04:50 39.28304 116.46121 3692 ft 210 kts 353°
2026-04-28 04:51 39.29718 116.45895 3449 ft 202 kts 353°
2026-04-28 04:51 39.31098 116.45675 3194 ft 192 kts 353°
2026-04-28 04:51 39.32371 116.45472 2969 ft 179 kts 353°
2026-04-28 04:51 39.33573 116.45280 2714 ft 169 kts 353°
2026-04-28 04:52 39.34727 116.45095 2465 ft 160 kts 354°
2026-04-28 04:52 39.35845 116.44919 2233 ft 150 kts 353°
2026-04-28 04:52 39.36892 116.44755 2035 ft 141 kts 353°
2026-04-28 04:52 39.37866 116.44601 1870 ft 139 kts 353°
2026-04-28 04:53 39.38836 116.44447 1701 ft 139 kts 352°
2026-04-28 04:53 39.39782 116.44297 1532 ft 138 kts 352°
2026-04-28 04:53 39.40745 116.44145 1352 ft 138 kts 352°
2026-04-28 04:53 39.41699 116.43993 1173 ft 138 kts 353°
2026-04-28 04:54 39.42645 116.43843 990 ft 137 kts 352°
2026-04-28 04:54 39.43598 116.43693 807 ft 137 kts 352°
2026-04-28 04:54 39.44546 116.43544 621 ft 137 kts 351°
2026-04-28 04:54 39.45494 116.43367 477 ft 136 kts 352°
2026-04-28 04:55 39.46437 116.43229 288 ft 137 kts 353°
2026-04-28 04:55 39.47374 116.43092 119 ft 132 kts 352°
2026-04-28 04:55 39.48234 116.42976 100 ft 112 kts 352°
2026-04-28 04:55 39.48866 116.42864 99 ft 68 kts 353°
2026-04-28 04:56 39.49264 116.42796 99 ft 51 kts 354°
2026-04-28 04:56 39.49511 116.42676 99 ft 33 kts 329°
2026-04-28 04:56 39.49669 116.42548 99 ft 24 kts 328°
2026-04-28 04:56 39.49819 116.42487 99 ft 21 kts 353°
2026-04-28 04:57 39.49969 116.42460 99 ft 21 kts 352°
2026-04-28 04:57 39.50104 116.42439 99 ft 16 kts 353°
2026-04-28 04:57 39.50136 116.42405 99 ft 4 kts 275°
2026-04-28 04:57 39.50130 116.42355 99 ft 6 kts 261°
2026-04-28 04:58 39.50146 116.42320 99 ft 5 kts 349°
2026-04-28 04:58 39.50190 116.42314 99 ft 7 kts 354°
2026-04-28 04:58 39.50263 116.42303 99 ft 13 kts 353°
2026-04-28 04:58 39.50370 116.42285 99 ft 17 kts 352°
2026-04-28 04:59 39.50490 116.42265 99 ft 17 kts 353°
2026-04-28 04:59 39.50610 116.42245 99 ft 17 kts 353°
2026-04-28 04:59 39.50731 116.42226 99 ft 17 kts 353°
2026-04-28 04:59 39.50853 116.42207 99 ft 17 kts 354°
2026-04-28 05:00 39.50975 116.42190 99 ft 17 kts 355°
2026-04-28 05:00 39.51051 116.42164 99 ft 4 kts 292°
2026-04-28 05:00 39.51047 116.42115 99 ft 6 kts 261°
2026-04-28 05:00 39.51038 116.42050 99 ft 8 kts 252°
2026-04-28 05:01 39.51018 116.41973 99 ft 9 kts 261°
2026-04-28 05:01 39.51009 116.41884 99 ft 10 kts 264°
2026-04-28 05:01 39.51008 116.41783 99 ft 11 kts 270°
2026-04-28 05:01 39.51017 116.41679 99 ft 9 kts 288°
2026-04-28 05:02 39.51006 116.41641 99 ft 3 kts 205°
2026-04-28 05:02 39.50970 116.41625 99 ft 6 kts 198°
2026-04-28 05:02 39.50937 116.41616 99 ft 0 kts 196°
2026-04-28 05:02 39.50933 116.41615 99 ft 0 kts 193°